Tracking 28790 objects as of 19-Apr-2024
HD Live streaming from Space Station
objects crossing your sky now

STARLINK-3998

Track STARLINK-3998 now!
10-day predictions
STARLINK-3998 is classified as:


NORAD ID: 52610
Int'l Code: 2022-052N
Perigee: 545.8 km
Apogee: 548.0 km
Inclination: 53.2 °
Period: 95.4 minutes
Semi major axis: 6917 km
RCS: Unknown
Launch date: May 14, 2022
Source: United States (US)
Launch site: AIR FORCE EASTERN TEST RANGE (AFETR)
Your satellite tracking list
Your tracking list is empty




NASA's NSSDC Master Catalog

Two Line Element Set (TLE):
1 52610U 22052N   24109.46509326  .00000209  00000-0  31206-4 0  9993
2 52610  53.2170 142.6626 0001574  91.1398 268.9774 15.08828580106587
Source of the keplerian elements: AFSPC